| time (UTC) | temp F | wind direction | speed knots | gust knots | rain 1hr in | rain 24hr in | rain mn in | humidity % | barometer mb |
| 20260505102124 | 54 | 211 | 4.3 | 12.2 | 0.00 | 0.00 | 0.00 | 84 | 1013.5 |
| 20260505100625 | 54 | 210 | 4.3 | 10.4 | 0.00 | 0.00 | 0.00 | 85 | 1013.4 |
| 20260505095124 | 53 | 214 | 4.3 | 10.4 | 0.00 | 0.00 | 0.00 | 85 | 1013.3 |
| 20260505093624 | 53 | 213 | 3.5 | 8.7 | 0.00 | 0.00 | 0.00 | 85 | 1013.3 |
| 20260505092125 | 53 | 219 | 4.3 | 8.7 | 0.00 | 0.00 | 0.00 | 86 | 1013.2 |
| 20260505090624 | 53 | 219 | 4.3 | 9.6 | 0.00 | 0.00 | 0.00 | 86 | 1013.2 |
| 20260505085125 | 53 | 215 | 4.3 | 12.2 | 0.00 | 0.00 | 0.00 | 86 | 1013.1 |
| 20260505083624 | 54 | 216 | 4.3 | 10.4 | 0.00 | 0.00 | 0.00 | 86 | 1013.2 |
| 20260505082124 | 54 | 216 | 4.3 | 10.4 | 0.00 | 0.00 | 0.00 | 85 | 1013.3 |
| 20260505080624 | 54 | 221 | 5.2 | 13.9 | 0.00 | 0.00 | 0.00 | 85 | 1013.3 |
| 20260505075125 | 54 | 215 | 5.2 | 12.2 | 0.00 | 0.00 | 0.00 | 85 | 1013.3 |
| 20260505073624 | 54 | 212 | 4.3 | 11.3 | 0.00 | 0.00 | 0.00 | 85 | 1013.3 |
| 20260505072124 | 54 | 213 | 4.3 | 9.6 | 0.00 | 0.00 | 0.00 | 85 | 1013.3 |
| 20260505070625 | 54 | 219 | 5.2 | 11.3 | 0.00 | 0.00 | 0.00 | 85 | 1013.4 |
| 20260505065124 | 54 | 219 | 4.3 | 10.4 | 0.00 | 0.00 | 0.00 | 85 | 1013.4 |
| 20260505063625 | 54 | 217 | 4.3 | 10.4 | 0.00 | 0.00 | 0.00 | 85 | 1013.4 |
| 20260505062125 | 54 | 218 | 4.3 | 11.3 | 0.00 | 0.00 | 0.00 | 85 | 1013.3 |
| 20260505060624 | 54 | 218 | 5.2 | 12.2 | 0.00 | 0.00 | 0.00 | 84 | 1013.3 |
| 20260505055124 | 54 | 221 | 4.3 | 13.0 | 0.00 | 0.00 | 0.00 | 84 | 1013.3 |
| 20260505053625 | 54 | 216 | 5.2 | 11.3 | 0.00 | 0.00 | 0.00 | 84 | 1013.4 |
| 20260505052125 | 53 | 219 | 4.3 | 11.3 | 0.00 | 0.00 | 0.00 | 83 | 1013.4 |
| 20260505050625 | 54 | 222 | 3.5 | 11.3 | 0.00 | 0.00 | 0.00 | 83 | 1013.5 |
| 20260505040625 | 54 | 229 | 4.3 | 12.2 | 0.00 | 0.00 | 0.00 | 81 | 1013.7 |
| 20260505035124 | 54 | 229 | 5.2 | 9.6 | 0.00 | 0.00 | 0.00 | 81 | 1013.9 |
| 20260505033625 | 54 | 233 | 5.2 | 11.3 | 0.00 | 0.00 | 0.00 | 80 | 1013.8 |
| 20260505032125 | 54 | 231 | 6.1 | 13.9 | 0.00 | 0.00 | 0.00 | 80 | 1013.8 |
| 20260505030625 | 54 | 231 | 6.1 | 14.8 | 0.00 | 0.00 | 0.00 | 80 | 1013.8 |
| 20260505025126 | 54 | 233 | 6.1 | 14.8 | 0.00 | 0.00 | 0.00 | 79 | 1013.9 |
| 20260505023625 | 54 | 229 | 7.0 | 14.8 | 0.00 | 0.00 | 0.00 | 79 | 1013.8 |
| 20260505022124 | 55 | 233 | 6.1 | 15.6 | 0.00 | 0.00 | 0.00 | 78 | 1013.8 |
| 20260505020624 | 55 | 233 | 7.0 | 16.5 | 0.00 | 0.00 | 0.00 | 77 | 1013.7 |
| 20260505015126 | 55 | 237 | 7.0 | 16.5 | 0.00 | 0.00 | 0.00 | 76 | 1013.7 |
| 20260505013625 | 55 | 230 | 6.1 | 13.9 | 0.00 | 0.00 | 0.00 | 75 | 1013.3 |
| 20260505012126 | 55 | 228 | 7.0 | 16.5 | 0.00 | 0.00 | 0.00 | 73 | 1013.1 |
| 20260505010625 | 55 | 227 | 7.0 | 18.2 | 0.00 | 0.00 | 0.00 | 73 | 1012.9 |
| 20260505005126 | 55 | 223 | 7.0 | 16.5 | 0.00 | 0.00 | 0.00 | 70 | 1012.7 |
| 20260505003625 | 56 | 226 | 7.8 | 17.4 | 0.00 | 0.00 | 0.00 | 68 | 1012.5 |
| 20260505002124 | 56 | 234 | 7.0 | 20.0 | 0.00 | 0.00 | 0.00 | 68 | 1012.2 |
| 20260505000624 | 56 | 233 | 7.8 | 16.5 | 0.00 | 0.00 | 0.00 | 67 | 1012.0 |
| 20260504235125 | 56 | 231 | 7.0 | 18.2 | 0.00 | 0.00 | 0.00 | 67 | 1011.9 |
| 20260504233625 | 57 | 224 | 7.0 | 15.6 | 0.00 | 0.00 | 0.00 | 67 | 1011.7 |
| 20260504232126 | 57 | 229 | 8.7 | 18.2 | 0.00 | 0.00 | 0.00 | 66 | 1011.6 |
| 20260504230624 | 58 | 224 | 7.8 | 17.4 | 0.00 | 0.00 | 0.00 | 66 | 1011.4 |
| 20260504225125 | 58 | 226 | 7.8 | 20.9 | 0.00 | 0.00 | 0.00 | 65 | 1011.4 |
| 20260504223626 | 58 | 221 | 7.8 | 19.1 | 0.00 | 0.00 | 0.00 | 65 | 1011.2 |
| 20260504222126 | 59 | 218 | 8.7 | 20.9 | 0.00 | 0.00 | 0.00 | 64 | 1011.2 |
| 20260504220625 | 59 | 224 | 7.8 | 15.6 | 0.00 | 0.00 | 0.00 | 64 | 1011.3 |
| 20260504215126 | 60 | 221 | 8.7 | 18.2 | 0.00 | 0.00 | 0.00 | 63 | 1011.3 |
| 20260504213625 | 61 | 221 | 7.8 | 20.9 | 0.00 | 0.00 | 0.00 | 61 | 1011.4 |
| 20260504212126 | 61 | 228 | 8.7 | 21.7 | 0.00 | 0.00 | 0.00 | 59 | 1011.4 |
| 20260504210625 | 63 | 229 | 7.8 | 19.1 | 0.00 | 0.00 | 0.00 | 56 | 1011.4 |
| 20260504205126 | 63 | 229 | 7.8 | 20.0 | 0.00 | 0.00 | 0.00 | 53 | 1011.3 |
| 20260504203625 | 64 | 231 | 7.8 | 23.5 | 0.00 | 0.00 | 0.00 | 50 | 1011.1 |
| 20260504202124 | 64 | 229 | 8.7 | 20.9 | 0.00 | 0.00 | 0.00 | 51 | 1010.9 |
| 20260504200625 | 65 | 235 | 7.8 | 20.9 | 0.00 | 0.00 | 0.00 | 50 | 1011.0 |
| 20260504195126 | 65 | 236 | 8.7 | 19.1 | 0.00 | 0.00 | 0.00 | 51 | 1011.1 |
| 20260504193625 | 65 | 243 | 9.6 | 19.1 | 0.00 | 0.00 | 0.00 | 55 | 1010.8 |
| 20260504192127 | 66 | 242 | 8.7 | 20.0 | 0.00 | 0.00 | 0.00 | 52 | 1010.9 |
| 20260504190626 | 65 | 243 | 9.6 | 19.1 | 0.00 | 0.00 | 0.00 | 54 | 1011.2 |
| 20260504185126 | 66 | 243 | 8.7 | 19.1 | 0.00 | 0.00 | 0.00 | 56 | 1011.1 |
| 20260504183626 | 67 | 245 | 8.7 | 19.1 | 0.00 | 0.00 | 0.00 | 52 | 1011.0 |
| 20260504182126 | 67 | 240 | 10.4 | 21.7 | 0.00 | 0.00 | 0.00 | 52 | 1010.8 |
| 20260504180625 | 66 | 243 | 9.6 | 21.7 | 0.00 | 0.00 | 0.00 | 52 | 1010.7 |
| 20260504175125 | 66 | 244 | 8.7 | 22.6 | 0.00 | 0.00 | 0.00 | 50 | 1010.7 |
| 20260504173625 | 66 | 241 | 9.6 | 21.7 | 0.00 | 0.00 | 0.00 | 51 | 1011.0 |
| 20260504172126 | 66 | 245 | 7.8 | 16.5 | 0.00 | 0.00 | 0.00 | 54 | 1011.1 |
| 20260504170625 | 66 | 245 | 9.6 | 22.6 | 0.00 | 0.00 | 0.00 | 54 | 1011.2 |
| 20260504150627 | 64 | 244 | 7.0 | 15.6 | 0.00 | 0.00 | 0.00 | 62 | 1012.1 |
| 20260504140626 | 62 | 254 | 5.2 | 13.9 | 0.00 | 0.00 | 0.00 | 61 | 1012.6 |
| 20260504130627 | 58 | 239 | 6.1 | 12.2 | 0.00 | 0.00 | 0.00 | 69 | 1012.7 |
| 20260504110626 | 52 | 239 | 4.3 | 11.3 | 0.00 | 0.00 | 0.00 | 75 | 1012.9 |